Regional Weather Roundup
Issued by NWS

Home | Current Version | Previous Version | Graphics & Text | Print | Product List | Glossary On
Versions: 1 2 3 4 5 6 7 8 9 10 11 12 13 14 15 16 17 18 19 20 21 22 23 24 25 26 27 28 29 30 31 32 33 34 35 36 37 38 39 40 41 42 43 44 45 46 47 48 49 50
000
ASUS43 KDMX 241001
RWRIA

WEATHER ROUNDUP FOR IOWA
NATIONAL WEATHER SERVICE DES MOINES IA
400 AM CST SAT FEB 24 2018

NOTE: "FAIR" INDICATES FEW OR NO CLOUDS BELOW 12,000 FEET WITH NO
SIGNIFICANT WEATHER AND/OR OBSTRUCTIONS TO VISIBILITY.

* - THESE STATIONS ARE NOT NWS STATIONS...THUS NOT UNDER NWS
QUALITY CONTROL.  THEY ALSO DO NOT REPORT WEATHER SUCH
AS PRECIPITATION OR FOG.

IAZ001>003-012>014-020>022-031>034-043>046-241100-
   NORTHWEST IOWA

CITY           SKY/WX    TMP DP  RH WIND       PRES   REMARKS
CARROLL *      CLOUDY    19  19 100 NE8       30.10F FOG     WCI   9
CHEROKEE *     FOG       17  17 100 E8        30.13F VSB 1   WCI   7
DENISON *      CLOUDY    21  21 100 E13G21    30.10F WCI   9
LE MARS *      CLOUDY    19  19 100 E7        30.12F FOG     WCI  10
ORANGE CITY *  FOG       18  18 100 E3        30.11F VSB 1/2
SHELDON *      FOG       16  16 100 E8        30.10F VSB 1/4 WCI   5
SIOUX CITY     CLOUDY    21  20  96 E6        30.11F WCI  13
SPENCER        HAZE      17  12  80 E8        30.13F VSB 1/2 WCI   7
STORM LAKE *   FOG       16  14  93 E13       30.10F VSB<1/4 WCI   2
$$

IAZ055>058-069>071-079>083-090>094-241100-
   SOUTHWEST IOWA

CITY           SKY/WX    TMP DP  RH WIND       PRES   REMARKS
ATLANTIC *     MOCLDY    23  23 100 NE8G16    30.09S WCI  14
AUDUBON *      PTCLDY    21  19  93 NE10G16   30.08F WCI  10
CLARINDA *     CLOUDY    27  27 100 E10G16    30.09F WCI  17
COUNCIL BLFS * CLOUDY    23  23 100 NE13      30.06F FOG     WCI  11
CRESTON *      CLOUDY    25  23  93 E16       30.09R WCI  12
HARLAN  *      CLOUDY    23  23 100 NE12G20   30.09F WCI  12
LAMONI         MIX PCPN  27  23  85 NE13      30.08F WCI  16
RED OAK *      CLOUDY    25  25 100 NE10G18   30.08F WCI  15
SHENANDOAH *   CLOUDY    27  25  93 NE15      30.08F WCI  15
$$

IAZ047>049-059>061-072>074-084-241100-
   CENTRAL IOWA

CITY           SKY/WX    TMP DP  RH WIND       PRES   REMARKS
AMES           CLEAR     22  19  89 NE7       30.13F WCI  13
ANKENY *       CLEAR     23  21  93 NE9       30.14F WCI  13
BOONE *        CLEAR     21  19  93 MISG      30.11F FOG
CHARITON *     CLOUDY    27  25  93 NE9       30.10F WCI  17
DES MOINES     PTCLDY    24  20  84 NE6       30.13F WCI  17
GRINNELL*      CLOUDY    24  22  91 NE12      30.13F WCI  13
KNOXVILLE *    CLOUDY    25  21  86 NE8       30.11F WCI  16
MARSHALLTOWN   CLEAR     22  20  92 NE10      30.12F WCI  11
NEWTON *         N/A     23  21  93 NE8       30.13F WCI  14
PELLA *        MOCLDY    26  22  87 E7        30.14F WCI  18
$$

IAZ004>006-015-016-023>025-035-036-241100-
   NORTH CENTRAL IOWA

CITY           SKY/WX    TMP DP  RH WIND       PRES   REMARKS
CLARION *      FOG       14  14 100 NE12      30.14F VSB 1   WCI   0
ESTHERVILLE    FOG        9   6  88 NE6       30.15F VSB 1/4 WCI  -1
FORT DODGE *   CLOUDY     9   6  88 CALM      30.15F FOG
MASON CITY     CLOUDY    13  11  92 NE5       30.17F FOG     WCI   5
FOREST CITY *  CLOUDY   N/A N/A N/A NE5       30.15F FOG
WEBSTER CITY * CLOUDY     7   3  85 N6        30.12F WCI  -3
IOWA FALLS *   FAIR      21  19  93 NE6       30.15F WCI  14
$$

IAZ007>011-017>019-026>030-037>042-050>054-066-241100-
   NORTHEAST IOWA

CITY           SKY/WX    TMP DP  RH WIND       PRES   REMARKS
CEDAR RAPIDS   CLOUDY    27  22  81 NE14      30.13F HAZE    WCI  16
CHARLES CITY * FAIR      19  19 100 NE12      30.16F WCI   7
CLINTON *      FAIR      27  25  92 E10       30.18F WCI  17
DECORAH *      FAIR      19  19 100 VRB6      30.17F FOG     WCI  11
DUBUQUE        FAIR      24  21  88 NE14      30.15F FOG     WCI  12
MONTICELLO *   CLOUDY    27  23  86 NE10      30.15F WCI  17
OELWEIN *      FAIR      21  21 100 NE14      30.15F WCI   8
WATERLOO       FAIR      22  20  92 NE8       30.16F FOG     WCI  12
$$

IAZ064-065-067-068-078-241100-
   EAST CENTRAL IOWA

CITY           SKY/WX    TMP DP  RH WIND       PRES   REMARKS
DAVENPORT      FAIR      29  24  82 NE12      30.17F WCI  19
IOWA CITY      CLOUDY    29  23  78 NE9       30.17S WCI  20
MT. PLEASANT * CLOUDY    30  28  93 NE8       30.15F WCI  23
MUSCATINE *    CLOUDY    30  25  80 NE10      30.17F WCI  21
QUAD CITIES    CLOUDY    30  25  81 NE9       30.15F WCI  22
$$

IAZ062-063-075>077-085>089-095>099-241100-
   SOUTHEAST IOWA

CITY           SKY/WX    TMP DP  RH WIND       PRES   REMARKS
BURLINGTON     CLOUDY    30  26  85 NE8       30.13F WCI  22
FAIRFIELD *    CLOUDY    28  25  86 NE12      30.14F WCI  18
FORT MADISON * MIX PCPN  30  28  93 NE9       30.14S WCI  22
KEOKUK *       LGT RAIN  32  30  93 NE9       30.12F WCI  24
OSKALOOSA *    CLOUDY    27  25  91 E13       30.13F WCI  16
OTTUMWA        CLOUDY    28  24  85 NE14      30.12F WCI  17
WASHINGTON *   CLOUDY    28  28 100 NE10      30.17S WCI  19
$$

ABBREVIATIONS USED IN REMARKS
   TC - TEMPERATURES IN CELSIUS
  WCI - WIND CHILL INDEX
   HX - HEAT INDEX
  VSB - VISIBILITY
$$





USA.gov is the U.S. government's official web portal to all federal, state and local government web resources and services.